GW1158 Weather Reports


time (UTC)temp
C
wind
direction
speed
KPH
gust
KPH
rain 1hr
cm
rain 24hr
cm
rain mn
cm
humidity
%
barometer
mb
20260504190049 15 0 8.0 22.5 0.00 0.00 0.00 26 1011.9
20260504185534 16 121 9.7 22.5 0.00 0.00 0.00 25 1012.0
20260504185034 17 274 6.4 19.3 0.00 0.00 0.00 27 1011.9
20260504184543 16 38 6.4 19.3 0.00 0.00 0.00 28 1011.8
20260504184034 15 307 4.8 22.5 0.00 0.00 0.00 29 1011.9
20260504183536 14 258 4.8 22.5 0.00 0.00 0.00 29 1012.0
20260504183045 13 342 9.7 22.5 0.00 0.00 0.00 31 1012.2
20260504182533 13 32 3.2 16.1 0.00 0.00 0.00 32 1012.1
20260504182033 14 314 3.2 17.7 0.00 0.00 0.00 32 1012.1
20260504181546 15 302 6.4 25.7 0.00 0.00 0.00 27 1012.0
20260504181034 15 319 6.4 25.7 0.00 0.00 0.00 26 1011.9
20260504180534 15 300 6.4 14.5 0.00 0.00 0.00 27 1011.9
20260504180051 16 316 3.2 16.1 0.00 0.00 0.00 26 1011.8
20260504175536 16 285 4.8 16.1 0.00 0.00 0.00 24 1012.0
20260504175035 16 229 4.8 16.1 0.00 0.00 0.00 24 1012.0
20260504174550 16 343 3.2 8.0 0.00 0.00 0.00 25 1012.0
20260504174033 16 17 1.6 8.0 0.00 0.00 0.00 27 1012.1
20260504173532 16 193 1.6 16.1 0.00 0.00 0.00 24 1012.2
20260504173040 16 277 3.2 16.1 0.00 0.00 0.00 27 1012.3
20260504172533 16 352 3.2 16.1 0.00 0.00 0.00 26 1012.3
20260504172033 16 236 4.8 9.7 0.00 0.00 0.00 27 1012.4
20260504171549 15 9 1.6 14.5 0.00 0.00 0.00 27 1012.4
20260504171033 15 150 3.2 14.5 0.00 0.00 0.00 26 1012.5
20260504170533 15 347 3.2 11.3 0.00 0.00 0.00 28 1012.5
20260504151035 13 254 1.6 3.2 0.00 0.00 0.00 30 1013.0
20260504150533 13 255 0.0 3.2 0.00 0.00 0.00 30 1013.1
20260504141032 10 236 1.6 3.2 0.00 0.00 0.00 38 1013.4
20260504140533 10 246 0.0 1.6 0.00 0.00 0.00 37 1013.4
20260504130534 5 282 1.6 3.2 0.00 0.00 0.00 46 1013.5
20260504110533 4 0 0.0 3.2 0.00 0.00 0.00 43 1013.1
20260504100530 5 227 1.6 3.2 0.00 0.00 0.00 41 1013.2
20260504090104 5 229 3.2 4.8 0.00 0.00 0.00 42 1013.3
20260504081547 5 242 1.6 4.8 0.00 0.00 0.00 43 1013.8
20260504081034 5 239 1.6 3.2 0.00 0.00 0.00 44 1013.8
20260504080533 5 0 1.6 3.2 0.00 0.00 0.00 45 1013.8
20260504050530 7 238 0.0 1.6 0.00 0.00 0.00 38 1015.2
20260504045537 7 210 0.0 1.6 0.00 0.00 0.00 39 1015.2
20260504045033 7 0 0.0 1.6 0.00 0.00 0.00 39 1015.3
20260504044548 7 0 0.0 1.6 0.00 0.00 0.00 39 1015.3
20260504044033 7 0 0.0 0.0 0.00 0.00 0.00 39 1015.2
20260504043533 7 0 0.0 1.6 0.00 0.00 0.00 38 1015.3
20260504043049 7 0 0.0 1.6 0.00 0.00 0.00 38 1015.4
20260504042532 8 0 0.0 1.6 0.00 0.00 0.00 37 1015.3
20260504042032 8 0 0.0 1.6 0.00 0.00 0.00 37 1015.3
20260504041542 8 226 0.0 1.6 0.00 0.00 0.00 35 1015.1
20260504041032 8 0 0.0 1.6 0.00 0.00 0.00 35 1015.2
20260504040535 8 0 0.0 1.6 0.00 0.00 0.00 35 1015.1
20260504040110 8 0 0.0 4.8 0.00 0.00 0.00 35 1015.2
20260504035533 8 255 0.0 4.8 0.00 0.00 0.00 35 1015.2
20260504035030 9 255 1.6 4.8 0.00 0.00 0.00 35 1015.2
20260504034550 9 195 0.0 1.6 0.00 0.00 0.00 34 1015.1
20260504034033 9 0 0.0 1.6 0.00 0.00 0.00 33 1015.1
20260504033536 10 0 0.0 3.2 0.00 0.00 0.00 33 1015.1
20260504033046 10 108 0.0 4.8 0.00 0.00 0.00 31 1015.0
20260504032539 10 95 1.6 4.8 0.00 0.00 0.00 31 1014.9
20260504032035 10 0 0.0 4.8 0.00 0.00 0.00 30 1014.8
20260504031553 10 136 1.6 3.2 0.00 0.00 0.00 30 1014.9
20260504031033 11 91 1.6 3.2 0.00 0.00 0.00 30 1014.9
20260504030534 11 134 0.0 1.6 0.00 0.00 0.00 29 1014.7
20260504030050 12 0 0.0 3.2 0.00 0.00 0.00 27 1014.6
20260504025533 12 325 0.0 9.7 0.00 0.00 0.00 26 1014.6
20260504025033 12 261 1.6 14.5 0.00 0.00 0.00 24 1014.6
20260504024550 13 269 3.2 14.5 0.00 0.00 0.00 24 1014.5
20260504024033 13 240 3.2 14.5 0.00 0.00 0.00 24 1014.4
20260504023533 13 250 1.6 14.5 0.00 0.00 0.00 24 1014.3
20260504023048 13 335 6.4 14.5 0.00 0.00 0.00 24 1014.3
20260504022533 13 233 4.8 12.9 0.00 0.00 0.00 25 1014.2
20260504022033 13 300 4.8 11.3 0.00 0.00 0.00 25 1014.2
20260504021549 13 210 4.8 9.7 0.00 0.00 0.00 25 1014.1
20260504021039 13 246 3.2 14.5 0.00 0.00 0.00 26 1014.2
20260504020533 13 265 3.2 14.5 0.00 0.00 0.00 25 1014.1
20260504020050 13 273 4.8 14.5 0.00 0.00 0.00 24 1014.1
20260504015535 14 254 1.6 14.5 0.00 0.00 0.00 23 1014.1
20260504015034 15 281 3.2 14.5 0.00 0.00 0.00 23 1014.1
20260504014554 15 260 1.6 8.0 0.00 0.00 0.00 22 1014.1
20260504014034 15 262 1.6 8.0 0.00 0.00 0.00 22 1014.1
20260504013533 15 298 1.6 11.3 0.00 0.00 0.00 23 1014.1
20260504013058 15 275 3.2 12.9 0.00 0.00 0.00 23 1014.2
20260504012534 16 322 3.2 16.1 0.00 0.00 0.00 21 1014.2
20260504012035 16 274 4.8 16.1 0.00 0.00 0.00 21 1014.1
20260504011547 16 282 6.4 16.1 0.00 0.00 0.00 21 1014.2
20260504011032 16 304 1.6 9.7 0.00 0.00 0.00 21 1014.1
20260504010535 16 26 1.6 17.7 0.00 0.00 0.00 20 1014.1
20260504010101 16 341 1.6 17.7 0.00 0.00 0.00 20 1014.1
20260504005533 17 0 1.6 9.7 0.00 0.00 0.00 20 1014.1
20260504005034 17 318 3.2 9.7 0.00 0.00 0.00 20 1014.1
20260504004600 17 272 1.6 8.0 0.00 0.00 0.00 19 1014.2
20260504004034 17 323 1.6 11.3 0.00 0.00 0.00 20 1014.3
20260504003534 17 269 4.8 11.3 0.00 0.00 0.00 19 1014.4
20260504003048 17 304 3.2 8.0 0.00 0.00 0.00 20 1014.5
20260504002533 17 233 1.6 19.3 0.00 0.00 0.00 19 1014.5
20260504002033 17 341 1.6 19.3 0.00 0.00 0.00 19 1014.5
20260504001547 17 274 3.2 19.3 0.00 0.00 0.00 19 1014.5
20260504001031 17 74 3.2 12.9 0.00 0.00 0.00 19 1014.5
20260504000533 17 241 3.2 17.7 0.00 0.00 0.00 19 1014.6
20260504000047 17 312 3.2 17.7 0.00 0.00 0.00 19 1014.6
20260503235534 17 302 1.6 11.3 0.00 0.00 0.00 19 1014.6
20260503235033 17 333 3.2 11.3 0.00 0.00 0.00 20 1014.6
20260503234542 17 338 3.2 11.3 0.00 0.00 0.00 20 1014.7
20260503234033 17 330 3.2 17.7 0.00 0.00 0.00 19 1014.7
20260503233535 18 150 3.2 17.7 0.00 0.00 0.00 18 1014.5
20260503233046 17 259 6.4 17.7 0.00 0.00 0.00 19 1014.7
20260503232532 18 284 1.6 16.1 0.00 0.00 0.00 18 1014.8
20260503232029 17 1 3.2 16.1 0.00 0.00 0.00 19 1014.7
20260503231549 18 21 4.8 12.9 0.00 0.00 0.00 20 1014.8
20260503231030 17 15 3.2 9.7 0.00 0.00 0.00 19 1015.0
20260503230529 17 288 3.2 9.7 0.00 0.00 0.00 18 1015.0
20260503230054 17 0 1.6 12.9 0.00 0.00 0.00 18 1014.9
20260503225532 17 244 3.2 12.9 0.00 0.00 0.00 18 1014.9
20260503225033 17 321 4.8 12.9 0.00 0.00 0.00 19 1015.0
20260503224546 17 247 3.2 14.5 0.00 0.00 0.00 19 1015.0
20260503224033 17 240 6.4 14.5 0.00 0.00 0.00 18 1014.9
20260503223534 17 264 3.2 12.9 0.00 0.00 0.00 18 1015.0
20260503223042 17 307 4.8 12.9 0.00 0.00 0.00 18 1015.2
20260503222532 17 331 1.6 16.1 0.00 0.00 0.00 18 1015.2
20260503222034 17 252 3.2 16.1 0.00 0.00 0.00 19 1015.2
20260503221541 17 7 3.2 14.5 0.00 0.00 0.00 19 1015.3
20260503221036 16 312 3.2 6.4 0.00 0.00 0.00 20 1015.3
20260503220533 15 274 1.6 11.3 0.00 0.00 0.00 20 1015.5
20260503220048 16 236 4.8 11.3 0.00 0.00 0.00 20 1015.5
20260503215533 16 276 3.2 16.1 0.00 0.00 0.00 19 1015.7
20260503215032 17 252 3.2 16.1 0.00 0.00 0.00 19 1015.7
20260503214547 17 288 6.4 16.1 0.00 0.00 0.00 19 1015.8
20260503214037 17 252 3.2 12.9 0.00 0.00 0.00 18 1015.8
20260503213530 16 49 1.6 11.3 0.00 0.00 0.00 21 1016.0
20260503213048 16 262 3.2 11.3 0.00 0.00 0.00 21 1016.1
20260503212534 15 359 1.6 11.3 0.00 0.00 0.00 21 1016.2
20260503212032 15 281 3.2 11.3 0.00 0.00 0.00 21 1016.2
20260503211545 16 304 1.6 9.7 0.00 0.00 0.00 20 1016.3
20260503211035 16 20 1.6 9.7 0.00 0.00 0.00 20 1016.2
20260503210532 16 239 3.2 9.7 0.00 0.00 0.00 19 1016.2
20260503210048 16 3 1.6 4.8 0.00 0.00 0.00 21 1016.4
20260503205533 16 271 0.0 8.0 0.00 0.00 0.00 19 1016.4
20260503205033 16 281 1.6 12.9 0.00 0.00 0.00 20 1016.5
20260503204551 16 322 3.2 12.9 0.00 0.00 0.00 20 1016.5
20260503204033 16 270 3.2 11.3 0.00 0.00 0.00 20 1016.5
20260503203533 16 21 6.4 11.3 0.00 0.00 0.00 19 1016.7
20260503203055 16 232 3.2 9.7 0.00 0.00 0.00 21 1016.7
20260503202533 16 252 1.6 12.9 0.00 0.00 0.00 18 1016.7
20260503202033 17 307 3.2 12.9 0.00 0.00 0.00 17 1016.8
20260503201549 17 226 1.6 12.9 0.00 0.00 0.00 21 1016.7
20260503201029 16 347 3.2 12.9 0.00 0.00 0.00 19 1016.8
20260503200529 16 207 3.2 12.9 0.00 0.00 0.00 21 1016.7
20260503200049 16 217 1.6 12.9 0.00 0.00 0.00 20 1016.9
20260503195534 15 326 4.8 12.9 0.00 0.00 0.00 20 1017.0
20260503195033 16 274 3.2 14.5 0.00 0.00 0.00 20 1017.1
20260503194547 16 253 1.6 14.5 0.00 0.00 0.00 20 1017.1
20260503194033 16 285 3.2 14.5 0.00 0.00 0.00 19 1017.1
20260503193533 17 355 3.2 12.9 0.00 0.00 0.00 19 1017.1
20260503193049 16 234 3.2 22.5 0.00 0.00 0.00 21 1017.2
20260503192532 16 358 6.4 22.5 0.00 0.00 0.00 20 1017.3
20260503192033 17 240 3.2 17.7 0.00 0.00 0.00 19 1017.3
20260503191552 17 230 4.8 17.7 0.00 0.00 0.00 20 1017.4
20260503191033 17 334 1.6 17.7 0.00 0.00 0.00 22 1017.5
20260503190536 16 333 4.8 17.7 0.00 0.00 0.00 22 1017.5